Lid_Strength_Index
4 4 4 4 4 5 4 1 4 -0 -1 4 4 5 5 7 5 4 5 5 6 7 7 7 7 8 7 5 5 7 6 7 10 8 6 5 6 8 8 12 12 10 11 15
4 4 4 4 4 5 1 3 2 -1 0 6 5 5 5 5 5 5 5 6 5 5 6 8 7 7 5 4 5 7 6 8 11 10 8 7 8 7 7 8 9 12 13 13
4 4 4 4 4 5 2 3 5 2 1 2 5 5 5 6 4 5 4 5 4 5 6 5 7 7 6 4 5 5 4 8 9 11 10 8 10 8 7 8 11 11 11 10
4 4 4 4 4 4 1 2 5 4 5 5 5 5 5 6 6 5 4 5 5 6 7 7 7 6 6 5 6 5 5 9 8 8 8 8 8 8 8 9 8 11 9 10
4 4 4 4 4 5 0 4 4 3 4 5 5 5 6 6 6 5 6 6 6 5 7 6 8 6 6 7 5 6 5 9 8 9 8 8 9 8 8 8 8 8 8 10
4 4 4 4 4 3 1 1 0 3 5 5 5 6 6 6 5 5 4 5 5 6 6 4 4 4 5 5 6 7 7 9 9 14 9 9 12 9 8 7 7 8 10 7
4 3 3 4 4 4 0 1 2 4 6 4 6 5 5 5 5 6 5 4 5 4 2 3 3 4 5 5 5 4 8 8 8 10 9 15 9 6 6 7 7 6 6 6
4 4 3 3 3 4 -0 -0 2 4 5 4 5 5 5 4 4 5 5 4 3 2 3 6 7 8 7 7 6 6 5 8 10 11 11 10 9 7 7 8 9 6 6 5
4 4 3 3 4 4 0 -0 -0 2 4 6 5 5 5 5 5 5 5 3 2 3 5 6 10 10 9 11 9 5 6 6 7 9 12 14 9 6 4 5 12 6 5 5
4 3 3 3 4 4 1 -0 -2 2 4 3 3 5 5 4 4 5 5 4 4 3 6 7 8 9 7 12 12 11 11 7 9 10 10 10 6 5 4 12 11 5 4 4
4 4 3 3 4 3 2 0 -1 2 3 3 2 2 4 3 4 6 5 5 5 5 7 7 7 9 8 12 10 9 10 10 10 9 11 15 5 5 8 6 4 4 4 4
4 4 4 3 3 3 3 1 -1 -1 2 3 0 0 0 1 1 4 3 5 5 5 7 5 7 8 7 10 12 6 12 7 9 8 10 5 4 5 4 3 4 4 4 3
4 4 4 3 3 3 3 0 -1 0 2 3 2 3 0 -1 -0 -0 5 4 3 4 3 5 6 9 7 10 9 8 6 4 7 8 6 5 5 4 3 3 3 3 3 3
4 3 3 3 3 3 3 0 -1 0 2 4 4 -0 1 -1 -1 0 0 2 1 2 2 4 6 8 4 7 6 7 6 5 7 9 6 5 5 3 3 3 3 3 3 3
3 3 3 3 3 3 1 -1 -1 -1 2 5 4 1 0 0 0 1 1 1 2 3 4 5 7 4 5 4 5 8 5 7 9 9 5 5 4 3 3 3 3 3 3 3
3 3 3 3 3 3 -0 2 -0 -0 -0 3 5 1 2 1 1 1 2 1 2 2 4 5 4 4 5 6 9 5 4 4 4 5 3 3 3 2 2 3 2 3 3 2
4 3 3 3 3 1 2 3 2 3 -1 3 5 5 2 1 1 1 1 1 1 3 3 5 4 4 5 6 10 5 4 4 3 3 3 4 3 3 2 2 2 3 3 2
4 3 3 3 3 3 2 0 2 2 1 2 4 5 4 1 3 4 1 2 2 3 3 3 4 3 4 9 6 5 4 3 3 3 3 3 2 2 2 2 2 4 4 3
3 3 3 0 1 2 1 2 2 -2 1 4 4 6 7 1 3 2 3 2 5 2 4 4 4 6 9 7 6 5 4 4 4 3 3 3 3 3 3 2 3 4 4 4
3 2 2 3 1 3 1 1 1 2 1 1 4 2 5 3 3 4 4 3 4 7 5 3 6 8 4 4 3 3 3 2 2 4 4 4 4 3 3 3 2 3 3 3
1 2 3 0 2 0 1 4 4 3 4 3 3 4 5 2 5 5 3 5 4 8 7 6 8 9 5 3 3 2 2 2 2 2 2 2 2 3 3 2 2 2 2 3
2 2 1 -0 1 3 6 5 4 5 6 3 4 4 3 2 2 4 3 6 5 9 4 7 11 7 4 3 3 2 2 2 2 2 2 2 2 2 2 2 2 2 2 2
-1 1 4 4 4 10 8 9 6 6 3 3 3 4 3 3 2 3 4 7 7 3 7 10 9 5 3 3 3 2 2 2 2 2 2 2 2 1 2 2 1 2 2 2
3 5 11 5 7 6 5 6 6 4 2 3 3 3 4 3 4 4 8 6 5 8 10 11 7 5 4 3 2 2 3 2 2 2 2 2 2 2 2 1 1 2 2 1
4 4 10 6 4 4 4 3 4 3 2 3 3 3 3 4 5 4 6 8 9 8 11 7 5 3 3 3 3 2 2 2 3 3 2 2 2 2 3 1 1 1 2 1
3 4 5 4 5 5 4 4 4 3 3 2 3 5 6 6 6 7 8 9 10 8 7 5 3 3 3 2 2 2 2 2 2 3 2 2 2 2 2 1 1 2 2 2
4 4 2 3 4 4 4 4 4 2 3 5 4 8 8 5 6 8 5 8 6 4 3 3 2 3 2 2 2 2 2 2 2 2 2 2 1 1 2 3 2 2 2 2